Station SGNW3 - Sheboygan, WI Image indicating link to RSS feed of recent meteorological observations for station SGNW3


Conditions at SGNW3 as of
(11:00 am CDT)
1600 GMT on 06/16/2024:
     

Click on the graph icon in the table below to see a time series plot of the last five days of that observation.

5-day plot - Wind Direction Wind Direction (WDIR):SSE ( 160 deg true )
5-day plot - Wind Speed Wind Speed (WSPD):9.3 m/s
5-day plot - Wind Gust Wind Gust (GST):10.8 m/s
5-day plot - Atmospheric Pressure Atmospheric Pressure (PRES):1011.1 mb
5-day plot - Pressure Tendency Pressure Tendency (PTDY): -1.8 mb ( Falling )
5-day plot - Air Temperature Air Temperature (ATMP): 14.7 °C
5-day plot - Wind Speed at 10 Meters Wind Speed at 10 meters (WSPD10M): 9 m/s
5-day plot - Wind Speed at 20 Meters Wind Speed at 20 meters (WSPD20M): 9 m/s
5-day plot -  Wind Speed, Wind Gust and Atmospheric Pressure Combined plot of Wind Speed, Gust, and Air Pressure
Continuous Winds
TIME
(CDT)
5-day plot - Wind Direction WDIR 5-day plot - Wind Speed WSPD
11:00 amS ( 178 deg ) 8.2 m/s
10:50 amSSE ( 163 deg ) 8.2 m/s
10:40 amSSE ( 151 deg ) 10.3 m/s
10:30 amSSE ( 156 deg ) 10.8 m/s
10:20 amSSE ( 156 deg ) 10.8 m/s
10:10 amSE ( 144 deg ) 11.3 m/s
 
Peak gust during the measurement hour
TIME
(CDT)
5-day plot - Gust Direction GDR 5-day plot - Gust Speed GST
10:17 amSSE ( 150 deg ) 12.9 m/s
Previous observations
TIME
(CDT)
5-day plot - Wind Direction
WDIR
 
5-day plot - Wind Speed
WSPD
m/s
5-day plot - Wind Gust
GST
m/s
5-day plot - Wave Height
WVHT
m
5-day plot - Dominant Wave Period
DPD
sec
5-day plot - Average Wave Period
APD
sec
5-day plot - Mean Wave Direction
MWD
 
5-day plot - Atmospheric Pressure
PRES
mb
5-day plot - Pressure Tendency
PTDY
mb
5-day plot - Air Temperature
ATMP
°C
5-day plot - Water Temperature
WTMP
°C
5-day plot - Dew Point
DEWP
°C
5-day plot - Salinity
SAL
psu
5-day plot - Visibility
VIS
km
5-day plot - Tide (above MLLW)
TIDE
m
2024-06-16 10:00 am SE 11 12----1011.4 -1.2 15.6-----
2024-06-16 09:00 am S 8 9----1014.1 +1.1 18.2-----
2024-06-16 08:00 am S 8 10----1012.9 -0.4 16.2-----
2024-06-16 07:00 am S 9 10----1012.6 -0.7 16.3-----
2024-06-16 06:00 am S 8 9----1013.0 -0.7 16.5-----
2024-06-16 05:00 am S 9 10----1013.3 -0.9 16.7-----
2024-06-16 04:00 am S 8 8----1013.3 -1.5 16.8-----
2024-06-16 03:00 am S 6 6----1013.7 -1.4 16.8-----
2024-06-16 02:00 am S 6 7----1014.2 -0.9 16.8-----
2024-06-16 01:00 am S 7 8----1014.8 -0.4 17.8-----
2024-06-16 12:00 amSSE 7 9----1015.1 -0.4 18.4-----
2024-06-15 11:00 pmSSE 8 10----1015.1 -0.4 18.9-----
2024-06-15 10:00 pmSSE 5 7----1015.2 -0.9 18.8-----
2024-06-15 09:00 pmSSE 4 4----1015.5 -1.4 17.9-----
2024-06-15 08:00 pmNNE 2 3----1015.5 -2.6 17.1-----
2024-06-15 07:00 pmNNE 2 2----1016.1 -2.3 16.8-----
2024-06-15 06:00 pmSSE 2 2----1016.9 -1.5 17.3-----
2024-06-15 05:00 pm S 3 3----1018.1 -1.6 17.1-----
2024-06-15 04:00 pm S 3 3----1018.4 -1.9 17.0-----
2024-06-15 03:00 pmSSE 4 5----1018.4 -2.1 16.2-----
2024-06-15 02:00 pmSSE 4 5----1019.7 -0.9 16.2-----
2024-06-15 01:00 pm SE 5 5----1020.3 -0.9 16.2-----
2024-06-15 12:00 pmESE 5 6----1020.5 -0.5 15.9-----
2024-06-15 11:00 am SE 6 7----1020.6 -0.8 15.7-----